ARE4029 SKRG-SKBO

Flight info

Callsign ARE4029
Flight time 0h 26m
Altitude 23000
Route ISVAT2B ISVAT ISVAT5E
Aircraft A320/M-SDE3FGHIRWY/LB1

Departure

Time 2026-05-07 03:16
Airport Jose Maria Córdova International Airport (SKRG)

Arrival

Time 2026-05-07 03:42
Airport El Dorado International Airport (SKBO)
Time Latitude Longitude Altitude Speed Heading
2026-05-07 02:52 6.17065 -75.42700 7018 ft 0 kts 293°
2026-05-07 03:06 6.17059 -75.42686 7022 ft 4 kts 295°
2026-05-07 03:06 6.17049 -75.42661 7019 ft 4 kts 281°
2026-05-07 03:06 6.17051 -75.42640 7018 ft 3 kts 220°
2026-05-07 03:07 6.17071 -75.42625 7018 ft 4 kts 204°
2026-05-07 03:07 6.17097 -75.42618 7019 ft 4 kts 183°
2026-05-07 03:07 6.17107 -75.42617 7019 ft 0 kts 178°
2026-05-07 03:09 6.17103 -75.42617 7017 ft 2 kts 178°
2026-05-07 03:09 6.17074 -75.42611 7015 ft 6 kts 160°
2026-05-07 03:09 6.17025 -75.42584 7014 ft 10 kts 149°
2026-05-07 03:09 6.16942 -75.42534 7012 ft 17 kts 149°
2026-05-07 03:10 6.16812 -75.42485 7003 ft 22 kts 181°
2026-05-07 03:10 6.16649 -75.42483 6995 ft 24 kts 180°
2026-05-07 03:10 6.16475 -75.42481 6987 ft 26 kts 179°
2026-05-07 03:10 6.16301 -75.42478 6980 ft 24 kts 180°
2026-05-07 03:11 6.16131 -75.42479 6977 ft 24 kts 179°
2026-05-07 03:11 6.15963 -75.42477 6976 ft 24 kts 179°
2026-05-07 03:11 6.15800 -75.42474 6975 ft 23 kts 179°
2026-05-07 03:11 6.15639 -75.42473 6973 ft 20 kts 179°
2026-05-07 03:12 6.15509 -75.42473 6976 ft 19 kts 179°
2026-05-07 03:12 6.15378 -75.42473 6977 ft 19 kts 180°
2026-05-07 03:12 6.15244 -75.42472 6977 ft 19 kts 180°
2026-05-07 03:12 6.15109 -75.42472 6978 ft 20 kts 180°
2026-05-07 03:13 6.14971 -75.42471 6978 ft 20 kts 179°
2026-05-07 03:13 6.14854 -75.42481 6975 ft 14 kts 175°
2026-05-07 03:13 6.14817 -75.42416 6972 ft 9 kts 87°
2026-05-07 03:13 6.14833 -75.42365 6973 ft 6 kts 32°
2026-05-07 03:14 6.14870 -75.42351 6975 ft 10 kts 20°
2026-05-07 03:14 6.14932 -75.42319 6977 ft 6 kts 39°
2026-05-07 03:14 6.15001 -75.42299 6978 ft 8 kts 359°
2026-05-07 03:15 6.15225 -75.42301 6981 ft 68 kts 360°
2026-05-07 03:15 6.15927 -75.42306 6979 ft 131 kts
2026-05-07 03:15 6.17024 -75.42315 7012 ft 181 kts 359°
2026-05-07 03:15 6.18331 -75.42331 7552 ft 189 kts
2026-05-07 03:16 6.19688 -75.42334 8055 ft 204 kts
2026-05-07 03:16 6.21159 -75.42236 8329 ft 217 kts 20°
2026-05-07 03:16 6.22374 -75.41394 8805 ft 215 kts 58°
2026-05-07 03:16 6.22820 -75.40010 9362 ft 210 kts 94°
2026-05-07 03:17 6.22372 -75.38663 9920 ft 208 kts 125°
2026-05-07 03:17 6.21504 -75.37498 10491 ft 208 kts 127°
2026-05-07 03:17 6.20624 -75.36339 11031 ft 209 kts 127°
2026-05-07 03:17 6.19738 -75.35171 11558 ft 211 kts 127°
2026-05-07 03:18 6.18848 -75.33990 12066 ft 213 kts 126°
2026-05-07 03:18 6.17949 -75.32799 12576 ft 214 kts 126°
2026-05-07 03:18 6.17002 -75.31632 12988 ft 222 kts 132°
2026-05-07 03:18 6.15749 -75.30597 13114 ft 245 kts 145°
2026-05-07 03:19 6.14154 -75.29827 13307 ft 266 kts 156°
2026-05-07 03:19 6.12380 -75.29150 13721 ft 277 kts 156°
2026-05-07 03:19 6.10588 -75.28463 14463 ft 268 kts 156°
2026-05-07 03:19 6.08894 -75.27816 15313 ft 255 kts 155°
2026-05-07 03:20 6.07228 -75.27171 15684 ft 268 kts 155°
2026-05-07 03:20 6.05416 -75.26459 15808 ft 291 kts 155°
2026-05-07 03:20 6.03455 -75.25687 15926 ft 314 kts 155°
2026-05-07 03:20 6.01341 -75.24860 16029 ft 336 kts 156°
2026-05-07 03:21 5.99092 -75.23984 16215 ft 354 kts 156°
2026-05-07 03:21 5.96769 -75.23085 16674 ft 361 kts 156°
2026-05-07 03:21 5.94404 -75.22171 17232 ft 366 kts 156°
2026-05-07 03:21 5.92015 -75.21248 17792 ft 370 kts 156°
2026-05-07 03:22 5.89599 -75.20314 18286 ft 374 kts 156°
2026-05-07 03:22 5.87161 -75.19368 18823 ft 377 kts 156°
2026-05-07 03:22 5.84703 -75.18413 19353 ft 380 kts 156°
2026-05-07 03:22 5.82255 -75.17458 19843 ft 384 kts 156°
2026-05-07 03:23 5.79755 -75.16481 20344 ft 387 kts 156°
2026-05-07 03:23 5.77229 -75.15499 20840 ft 391 kts 157°
2026-05-07 03:23 5.74672 -75.14510 21313 ft 395 kts 157°
2026-05-07 03:23 5.72098 -75.13517 21779 ft 398 kts 157°
2026-05-07 03:24 5.69505 -75.12518 22244 ft 402 kts 157°
2026-05-07 03:24 5.66892 -75.11488 22699 ft 405 kts 156°
2026-05-07 03:24 5.64271 -75.10417 23062 ft 409 kts 156°
2026-05-07 03:24 5.61649 -75.09323 23149 ft 404 kts 156°
2026-05-07 03:25 5.59106 -75.08256 23175 ft 390 kts 156°
2026-05-07 03:25 5.56615 -75.07214 23177 ft 386 kts 156°
2026-05-07 03:25 5.54131 -75.06182 23149 ft 385 kts 156°
2026-05-07 03:25 5.51652 -75.05157 23147 ft 385 kts 156°
2026-05-07 03:26 5.49210 -75.04148 23149 ft 385 kts 155°
2026-05-07 03:26 5.46735 -75.03129 23105 ft 383 kts 156°
2026-05-07 03:26 5.44291 -75.02124 22871 ft 374 kts 156°
2026-05-07 03:26 5.41907 -75.01143 22614 ft 367 kts 156°
2026-05-07 03:27 5.39561 -75.00177 22359 ft 363 kts 155°
2026-05-07 03:27 5.37240 -74.99220 21957 ft 358 kts 155°
2026-05-07 03:27 5.34950 -74.98261 21510 ft 356 kts 155°
2026-05-07 03:27 5.32666 -74.97291 21045 ft 355 kts 154°
2026-05-07 03:28 5.30393 -74.96317 20582 ft 355 kts 154°
2026-05-07 03:28 5.28120 -74.95343 20118 ft 354 kts 154°
2026-05-07 03:28 5.25847 -74.94372 19671 ft 354 kts 154°
2026-05-07 03:28 5.23578 -74.93407 19224 ft 354 kts 153°
2026-05-07 03:29 5.21456 -74.92189 18776 ft 350 kts 139°
2026-05-07 03:29 5.19725 -74.90511 18349 ft 345 kts 126°
2026-05-07 03:29 5.18436 -74.88524 17725 ft 346 kts 117°
2026-05-07 03:29 5.17262 -74.86468 17458 ft 332 kts 117°
2026-05-07 03:30 5.16138 -74.84487 17045 ft 322 kts 117°
2026-05-07 03:30 5.15035 -74.82555 16603 ft 316 kts 117°
2026-05-07 03:30 5.13939 -74.80662 16522 ft 312 kts 118°
2026-05-07 03:30 5.12848 -74.78788 16552 ft 312 kts 118°
2026-05-07 03:31 5.11751 -74.76909 16567 ft 312 kts 118°
2026-05-07 03:31 5.10657 -74.75032 16426 ft 313 kts 118°
2026-05-07 03:31 5.09562 -74.73145 16118 ft 311 kts 118°
2026-05-07 03:31 5.08480 -74.71280 15844 ft 308 kts 118°
2026-05-07 03:32 5.07405 -74.69424 15568 ft 306 kts 118°
2026-05-07 03:32 5.06340 -74.67585 15303 ft 304 kts 118°
2026-05-07 03:32 5.05282 -74.65758 15034 ft 302 kts 118°
2026-05-07 03:32 5.04230 -74.63939 14788 ft 300 kts 118°
2026-05-07 03:33 5.03182 -74.62129 14525 ft 299 kts 118°
2026-05-07 03:33 5.02141 -74.60326 14264 ft 297 kts 118°
2026-05-07 03:33 5.01110 -74.58544 14001 ft 294 kts 118°
2026-05-07 03:33 5.00083 -74.56775 13710 ft 293 kts 117°
2026-05-07 03:34 4.99059 -74.55011 13443 ft 292 kts 118°
2026-05-07 03:34 4.98039 -74.53249 13168 ft 291 kts 118°
2026-05-07 03:34 4.97025 -74.51494 12904 ft 290 kts 118°
2026-05-07 03:34 4.96028 -74.49767 12695 ft 289 kts 119°
2026-05-07 03:35 4.95019 -74.48025 12409 ft 289 kts 119°
2026-05-07 03:35 4.94010 -74.46287 12144 ft 288 kts 119°
2026-05-07 03:35 4.93011 -74.44568 11975 ft 280 kts 120°
2026-05-07 03:35 4.92049 -74.42910 11858 ft 271 kts 120°
2026-05-07 03:36 4.91093 -74.41316 11817 ft 264 kts 124°
2026-05-07 03:36 4.90019 -74.39820 11839 ft 264 kts 125°
2026-05-07 03:36 4.88947 -74.38323 11851 ft 264 kts 125°
2026-05-07 03:36 4.87880 -74.36830 11857 ft 259 kts 124°
2026-05-07 03:37 4.86857 -74.35401 11921 ft 245 kts 124°
2026-05-07 03:37 4.85890 -74.34054 11930 ft 232 kts 124°
2026-05-07 03:37 4.84966 -74.32763 11932 ft 226 kts 123°
2026-05-07 03:37 4.84023 -74.31511 11959 ft 225 kts 130°
2026-05-07 03:38 4.82963 -74.30425 11963 ft 210 kts 130°
2026-05-07 03:38 4.82037 -74.29327 11728 ft 203 kts 126°
2026-05-07 03:38 4.81184 -74.28222 11493 ft 197 kts 126°
2026-05-07 03:38 4.80366 -74.27142 11261 ft 192 kts 126°
2026-05-07 03:39 4.79577 -74.26099 11037 ft 187 kts 126°
2026-05-07 03:39 4.78800 -74.25072 10815 ft 183 kts 126°
2026-05-07 03:39 4.78043 -74.24071 10600 ft 176 kts 126°
2026-05-07 03:39 4.77323 -74.23119 10413 ft 162 kts 127°
2026-05-07 03:40 4.76661 -74.22244 10211 ft 157 kts 127°
2026-05-07 03:40 4.75997 -74.21365 9988 ft 158 kts 127°
2026-05-07 03:40 4.75337 -74.20492 9774 ft 156 kts 127°
2026-05-07 03:40 4.74691 -74.19622 9549 ft 155 kts 127°
2026-05-07 03:41 4.74250 -74.19039 9431 ft 156 kts 126°
2026-05-07 03:41 4.73367 -74.17896 9197 ft 156 kts 126°
2026-05-07 03:41 4.72924 -74.17315 8994 ft 156 kts 126°
2026-05-07 03:41 4.72275 -74.16447 8771 ft 156 kts 124°
2026-05-07 03:42 4.71622 -74.15583 8518 ft 156 kts 126°
2026-05-07 03:42 4.70972 -74.14727 8373 ft 148 kts 124°
2026-05-07 03:42 4.70490 -74.14086 8370 ft 73 kts 127°
2026-05-07 03:42 4.70329 -74.13870 8370 ft 26 kts 125°
2026-05-07 03:43 4.70214 -74.13734 8370 ft 25 kts 139°
2026-05-07 03:43 4.70069 -74.13649 8371 ft 20 kts 160°
2026-05-07 03:43 4.69986 -74.13615 8372 ft 6 kts 156°
2026-05-07 03:43 4.69981 -74.13613 8372 ft 1 kts 157°
2026-05-07 03:44 4.69968 -74.13608 8372 ft 1 kts 156°
2026-05-07 03:44 4.69946 -74.13602 8372 ft 10 kts 172°
2026-05-07 03:44 4.69897 -74.13650 8373 ft 7 kts 292°
2026-05-07 03:44 4.69945 -74.13692 8373 ft 13 kts 308°
2026-05-07 03:45 4.70004 -74.13771 8373 ft 18 kts 307°
2026-05-07 03:45 4.70094 -74.13894 8372 ft 23 kts 307°
2026-05-07 03:45 4.70194 -74.14024 8372 ft 24 kts 308°
2026-05-07 03:45 4.70295 -74.14158 8372 ft 24 kts 307°
2026-05-07 03:46 4.70382 -74.14269 8373 ft 14 kts 307°
2026-05-07 03:46 4.70379 -74.14346 8372 ft 12 kts 222°
2026-05-07 03:46 4.70318 -74.14393 8373 ft 11 kts 216°
2026-05-07 03:46 4.70266 -74.14432 8373 ft 8 kts 217°
2026-05-07 03:47 4.70201 -74.14483 8371 ft 13 kts 217°
2026-05-07 03:47 4.70129 -74.14537 8373 ft 13 kts 216°
2026-05-07 03:47 4.70058 -74.14561 8371 ft 10 kts 147°
2026-05-07 03:47 4.70013 -74.14503 8371 ft 11 kts 127°
2026-05-07 03:48 4.69964 -74.14439 8373 ft 12 kts 127°
2026-05-07 03:48 4.69940 -74.14387 8371 ft 6 kts 75°
2026-05-07 03:48 4.69973 -74.14357 8370 ft 7 kts 38°
2026-05-07 03:48 4.69999 -74.14337 8371 ft 1 kts 37°